Wind_Speed
6 7 8 9 9 9 10 10 10 11 11 11 10 9 8 8 7 6 5 4 4 4 4 4 5 5 7 7 9 10 12 13 15 16 17 19 20 20 21 22 22 22 23 22 22 21 21 21 22 23 24 25 27 28 28 28 27 27 27 27 27 28 28 28 27 26 26 26 26 26 26 26 25 25
6 6 7 8 9 8 8 8 9 9 9 9 8 8 7 6 5 4 3 2 2 3 5 5 5 5 7 9 10 11 12 14 15 16 18 19 20 21 21 21 21 21 21 21 21 22 22 23 25 26 27 28 30 30 30 30 30 29 29 29 29 29 28 28 28 27 26 26 26 25 25 26 25 25
5 6 6 8 8 8 7 7 7 7 7 7 6 6 5 3 2 2 1 1 2 3 6 8 8 8 8 9 10 12 13 15 15 17 19 20 21 22 23 23 23 22 22 22 23 24 26 27 29 31 32 32 33 33 33 32 32 31 31 31 30 30 29 28 28 27 27 26 26 26 25 25 25 25
7 6 6 7 7 8 8 7 7 6 6 5 4 3 2 1 1 2 3 4 6 6 7 9 11 11 10 11 13 15 16 18 19 20 22 22 22 23 23 23 23 23 23 23 24 26 27 29 31 32 33 33 33 33 32 32 31 31 31 31 30 30 30 29 29 28 27 27 26 26 25 25 24 24
9 9 8 8 8 8 8 8 7 7 6 5 5 4 4 3 3 4 5 6 7 9 10 11 13 14 15 16 18 20 21 22 23 22 22 21 21 21 21 21 21 21 21 22 23 24 25 27 29 30 31 31 30 30 30 30 30 30 30 30 29 30 30 31 31 30 29 28 27 26 26 25 24 24
12 11 10 10 9 9 9 9 9 9 8 7 7 7 6 6 6 6 7 7 8 9 11 12 13 15 17 18 19 20 21 20 20 19 19 19 20 20 20 19 19 19 20 21 22 23 25 25 26 27 28 28 28 28 28 28 28 28 28 28 29 30 32 33 34 34 32 30 29 27 26 26 24 23
14 13 13 12 12 11 11 11 11 10 10 9 9 9 9 8 8 9 9 9 10 10 12 13 15 16 17 18 18 18 18 17 17 17 18 19 19 20 20 21 21 21 22 23 24 25 25 24 25 26 26 25 25 25 26 26 26 26 27 28 29 31 33 35 36 36 35 33 31 29 28 26 25 24
15 15 15 15 15 14 13 13 13 13 12 11 11 11 11 10 10 11 11 11 12 13 13 14 16 16 16 16 15 15 16 16 17 17 17 18 18 19 20 21 22 21 22 23 24 25 25 25 27 29 28 25 23 22 23 23 24 25 27 28 30 31 32 33 34 34 34 34 33 31 29 28 26 25
17 17 17 16 17 17 16 15 15 15 15 14 13 13 13 13 13 13 13 14 15 15 15 15 14 14 13 11 11 13 14 14 15 15 16 16 17 18 19 20 20 20 20 22 23 24 25 26 28 29 28 25 23 22 22 22 24 26 29 30 31 31 32 32 32 31 30 31 32 32 30 29 28 26
19 19 19 19 19 19 18 17 17 17 17 17 16 16 16 16 16 16 16 16 16 16 16 14 11 10 10 10 10 12 14 14 15 16 16 16 17 17 17 17 17 19 21 22 23 25 26 27 28 30 28 24 21 21 21 22 24 26 29 31 32 33 34 34 32 29 27 27 28 29 30 29 28 27
20 21 21 20 21 21 20 19 19 19 19 19 19 19 18 18 18 17 17 17 16 15 12 10 8 7 8 9 10 12 14 16 17 19 19 18 17 17 17 18 20 23 25 26 27 27 28 28 29 31 30 25 21 20 21 22 23 26 29 31 33 35 36 36 34 30 27 26 25 26 27 28 28 27
19 20 20 21 21 21 21 21 20 20 20 20 20 20 20 20 19 18 18 17 15 12 8 7 7 7 7 9 11 13 15 17 18 19 21 21 22 22 22 24 27 29 30 29 30 31 30 30 30 32 31 28 24 21 21 22 24 27 30 33 35 37 38 38 36 32 29 27 26 26 26 26 27 26
18 19 19 20 20 21 21 21 22 21 21 21 21 20 20 20 19 18 17 15 13 10 8 7 8 7 7 10 12 13 15 17 18 20 22 24 26 28 29 30 31 33 33 32 32 33 32 31 31 33 32 30 26 23 22 23 26 29 32 35 37 39 39 38 37 34 31 29 28 27 26 26 26 26
17 18 18 18 19 20 20 21 20 20 21 21 21 21 21 20 19 18 16 13 11 10 10 9 9 8 7 9 12 13 16 18 20 22 24 26 28 29 30 31 32 34 36 36 35 35 35 33 34 35 34 31 28 25 24 26 29 32 35 37 40 41 41 39 37 34 32 31 30 29 28 26 26 25
17 17 17 17 18 19 20 20 19 18 19 21 21 20 20 20 18 16 14 12 12 12 11 10 9 9 9 10 12 15 17 19 21 22 24 26 28 29 31 31 32 34 36 37 37 37 37 37 37 36 36 34 31 28 27 29 31 34 37 39 41 43 42 41 38 36 34 33 32 30 28 27 26 25
18 17 17 18 18 19 20 20 19 17 18 20 20 20 19 19 17 15 13 13 12 12 12 11 10 11 12 12 14 17 19 20 21 22 24 26 28 30 31 32 33 35 36 36 37 38 38 38 38 38 37 35 32 30 30 32 34 37 40 42 44 45 45 43 41 39 36 35 33 32 30 28 27 26
19 18 17 18 18 19 19 20 19 18 17 18 19 19 19 18 16 15 14 13 12 12 13 13 12 14 16 15 15 18 20 21 22 24 25 26 28 30 31 33 35 37 38 38 37 37 38 38 38 38 38 35 33 31 32 34 37 39 42 45 48 49 48 47 45 41 38 37 35 34 32 30 28 26
21 19 18 18 19 19 19 20 20 19 18 18 19 19 19 18 17 16 15 14 13 13 14 15 15 15 18 18 18 19 21 22 24 25 27 27 29 30 31 33 36 39 41 41 39 36 36 38 39 39 39 36 33 32 33 35 38 40 42 45 48 49 50 50 48 45 41 39 38 36 34 32 29 27
22 20 19 18 19 19 20 20 21 20 19 19 20 20 20 19 18 17 16 14 14 15 16 18 18 19 20 21 21 22 23 24 26 27 28 29 31 33 33 34 37 40 42 42 40 37 36 37 38 40 40 36 33 32 33 35 38 41 43 44 47 48 49 49 49 46 43 41 40 39 37 35 31 28
23 21 20 19 19 19 20 20 21 21 21 21 21 21 21 21 20 19 17 16 16 17 18 20 21 21 21 22 23 23 24 26 28 30 30 31 33 35 36 37 39 41 43 42 39 37 37 37 38 39 38 36 33 32 34 36 39 41 43 45 46 47 47 47 46 44 42 42 42 41 40 38 35 31
25 23 21 20 20 19 19 20 22 23 23 23 22 22 22 22 22 21 19 18 17 17 19 20 20 21 21 22 23 24 26 28 30 32 32 32 34 36 37 39 40 42 43 41 38 37 37 37 38 37 35 34 34 33 33 36 39 41 43 45 47 48 48 47 45 42 41 41 41 41 40 39 37 35
26 25 22 21 21 20 19 21 22 24 24 24 24 24 24 24 24 22 20 19 19 19 19 19 19 20 21 22 23 25 27 29 32 34 34 34 35 37 39 41 42 43 43 39 36 36 37 38 38 36 31 29 31 34 34 35 38 41 44 46 47 49 49 48 45 42 40 39 39 39 38 37 36 35
27 26 24 23 23 21 20 21 23 25 25 25 25 25 26 26 25 23 22 22 22 22 22 21 21 22 22 23 24 25 28 30 32 34 35 36 37 38 40 41 43 43 41 37 35 36 38 38 37 36 33 29 28 31 34 36 39 41 43 45 47 48 49 47 45 43 41 39 38 37 36 35 34 33
27 26 24 23 23 22 22 22 24 26 27 26 26 27 28 28 27 26 25 25 25 25 25 24 23 23 24 25 25 27 29 31 33 35 36 36 38 39 40 42 43 42 38 36 36 37 39 38 35 34 34 33 31 30 33 36 40 42 44 45 47 48 49 47 46 45 43 41 39 38 37 36 34 32
27 26 24 23 23 23 23 24 25 26 28 28 29 29 28 28 29 29 28 28 28 28 27 26 26 26 27 28 28 29 31 33 35 36 36 37 38 40 40 42 43 40 35 34 36 38 38 36 34 32 33 34 35 34 34 36 40 43 45 46 48 49 50 49 47 47 45 43 40 39 37 36 35 33
28 26 24 23 22 22 23 24 26 27 28 29 30 30 29 30 30 30 30 30 30 30 29 29 29 30 31 31 31 32 34 36 36 37 38 38 39 40 41 42 42 37 34 34 36 37 35 33 33 34 34 34 35 36 38 39 41 43 46 48 50 51 51 50 49 48 46 43 40 39 37 37 36 35
29 27 25 24 23 23 23 24 26 28 29 30 30 30 30 31 32 31 31 31 32 32 32 32 33 33 34 34 34 35 36 36 36 37 37 37 38 40 41 41 39 36 36 37 37 36 34 32 32 34 36 36 36 37 40 42 44 46 48 49 51 51 51 50 49 48 45 42 40 38 38 37 37 36
30 29 27 26 24 23 23 24 25 27 29 30 30 30 31 32 33 32 32 33 34 35 35 36 36 36 36 36 38 38 37 36 35 35 35 36 38 39 39 38 36 37 37 36 36 35 33 32 32 34 35 37 38 40 42 44 46 48 51 51 51 50 50 49 48 46 43 40 39 39 38 38 38 37
31 30 29 28 27 25 24 24 25 26 28 29 30 31 32 33 34 34 34 35 37 37 37 38 38 37 38 39 39 38 36 35 35 34 34 36 37 37 36 35 35 36 34 33 34 33 32 32 33 34 35 36 39 42 44 46 48 50 51 52 51 49 47 47 47 45 42 39 38 38 39 39 39 39
32 31 29 28 28 27 26 25 24 25 27 28 30 32 33 34 35 35 36 37 38 38 38 38 38 39 40 39 37 36 35 35 34 34 34 35 34 33 32 32 32 33 32 32 32 32 32 32 33 34 35 37 39 42 44 47 48 49 50 50 49 48 47 46 46 45 42 39 37 37 37 38 39 39
31 30 29 29 28 27 27 26 25 25 25 27 29 30 32 34 35 35 36 38 38 38 38 38 39 40 40 37 36 36 36 35 34 33 33 32 30 29 30 30 30 30 31 32 33 32 32 32 33 34 37 38 40 42 44 46 47 48 48 48 47 47 48 47 46 45 43 41 39 37 36 36 36 37
29 28 29 28 28 27 26 26 25 25 25 26 28 29 31 33 34 35 37 38 39 39 38 38 39 39 37 35 34 35 35 34 32 30 29 28 27 28 29 28 28 29 30 32 33 33 33 32 33 35 37 39 41 42 44 45 46 47 47 47 46 46 47 48 47 45 43 42 40 39 38 37 36 36
28 28 28 28 27 27 27 28 28 28 29 30 30 31 31 32 34 36 37 37 37 37 37 36 36 35 33 31 30 30 30 31 29 27 27 28 29 29 28 28 28 28 30 32 33 34 34 34 34 36 38 39 41 42 44 45 46 46 46 46 46 46 46 46 45 44 44 44 43 41 40 39 39 38
30 30 30 29 29 30 30 31 32 31 32 33 33 30 29 31 34 34 35 35 35 34 35 36 35 32 29 28 26 25 24 25 26 27 29 30 31 31 30 30 30 30 31 33 34 34 35 35 35 35 37 40 41 42 43 44 45 46 45 45 45 45 44 44 44 43 44 45 46 45 43 41 41 39
31 32 32 31 30 30 31 31 30 29 30 33 32 29 27 28 30 31 34 35 34 33 35 36 35 31 29 26 24 23 22 22 24 27 30 31 32 31 31 31 32 32 33 33 34 34 35 35 35 35 37 38 40 41 42 42 43 43 43 42 43 43 43 42 42 42 43 44 46 47 46 43 41 38
31 32 32 31 30 30 30 30 29 27 29 31 31 29 28 28 29 32 34 35 35 35 35 34 32 29 27 24 24 24 23 23 24 27 29 30 31 31 32 32 32 32 32 34 35 36 36 36 36 37 37 38 38 39 40 41 40 40 40 39 39 39 40 39 39 40 41 43 45 47 48 47 43 40
31 30 30 31 31 31 30 30 29 28 29 30 30 29 29 29 29 31 33 34 34 33 31 29 27 26 24 23 24 24 25 25 27 28 29 29 30 30 31 32 32 31 32 34 36 37 38 38 37 37 38 39 39 39 39 40 40 38 37 37 36 36 36 36 36 36 37 40 43 45 47 47 45 42
31 31 31 31 32 32 31 30 29 29 29 30 29 30 30 29 29 30 32 34 33 29 26 26 26 25 23 23 24 26 27 29 29 29 29 30 30 29 29 30 31 32 33 34 36 38 40 39 38 38 38 40 40 40 39 40 40 38 36 35 33 32 31 32 33 34 35 37 39 42 44 45 46 45
31 31 31 30 31 31 31 30 30 31 31 31 30 30 29 28 29 30 33 34 32 27 24 24 26 26 25 26 26 27 29 29 28 28 29 30 29 28 28 29 31 32 33 34 36 38 40 40 39 38 39 39 40 39 39 39 39 39 38 36 33 30 30 32 33 35 36 37 38 38 39 39 40 41
31 31 31 30 30 31 31 31 32 32 33 33 31 28 26 28 30 30 32 33 32 29 27 27 28 28 27 27 27 28 27 27 27 28 28 28 28 28 29 30 32 32 33 34 35 36 38 40 39 38 38 38 39 38 37 35 35 36 37 36 34 31 32 33 35 36 38 39 40 40 39 38 38 38
28 28 29 29 29 30 31 33 33 34 34 34 31 27 27 30 31 30 32 33 32 30 29 28 28 27 26 26 26 27 27 27 26 27 27 27 28 29 29 29 32 33 33 33 33 34 36 38 39 39 38 38 38 37 34 32 31 32 35 35 34 32 32 33 34 36 38 39 39 40 40 40 39 38
27 27 27 28 30 31 32 33 35 35 35 33 30 28 28 31 32 33 33 33 32 31 30 29 28 28 28 27 27 26 27 27 26 26 27 27 28 29 29 29 31 32 32 33 34 35 36 37 38 40 39 38 37 35 33 32 30 30 33 35 34 32 32 32 32 33 34 35 37 40 41 40 39 39
28 29 29 30 31 32 33 34 35 35 33 32 31 31 30 31 33 34 34 33 32 32 32 31 31 30 29 28 27 26 26 25 25 26 27 27 27 28 29 30 31 32 33 34 35 36 36 36 36 37 38 38 37 35 33 31 30 29 32 36 35 33 32 33 32 32 31 32 35 38 39 39 39 39
30 31 32 32 33 33 34 33 33 33 32 31 33 34 33 32 33 33 34 35 35 34 32 31 31 30 28 26 26 25 24 24 25 26 27 27 27 29 30 31 33 34 34 35 35 35 36 35 34 34 35 36 36 35 32 30 29 29 33 36 37 35 33 33 33 34 33 32 33 34 34 35 35 35
31 32 32 33 34 34 34 33 32 32 31 32 34 35 35 34 34 34 35 36 35 32 30 30 29 28 27 25 24 25 26 26 25 26 26 27 29 30 31 32 34 34 35 36 36 35 35 34 33 33 32 32 32 33 32 30 28 29 32 35 37 38 35 32 31 32 33 32 32 32 31 30 30 30
Wind_Direction
136 132 131 131 132 134 133 133 131 130 132 132 132 131 129 127 125 117 106 95 79 64 52 54 54 34 14 6 1 357 354 352 351 351 351 350 348 345 344 343 343 344 345 344 344 345 346 348 348 347 346 346 346 347 348 347 346 345 343 342 340 338 335 334 332 331 329 328 327 325 323 322 322 323
156 150 148 146 146 148 149 147 144 142 143 141 139 139 137 137 136 129 118 85 44 21 359 1 12 3 351 350 349 348 346 344 344 345 345 344 341 341 343 346 347 349 348 345 344 344 345 345 345 345 345 345 346 346 346 345 344 344 343 342 341 339 336 333 331 329 327 326 325 324 322 320 318 318
185 174 169 164 165 168 167 164 163 161 157 155 154 153 150 148 148 140 108 0 354 346 335 336 342 346 345 343 343 342 340 339 341 342 343 342 342 344 348 349 350 350 348 346 345 344 344 344 344 345 345 345 345 345 345 344 343 342 342 342 342 340 339 336 332 329 327 325 324 322 321 319 317 315
211 202 191 186 183 186 188 186 185 188 182 177 177 181 187 200 271 313 328 328 328 330 331 333 336 338 340 342 341 340 339 338 337 339 340 341 342 345 346 347 347 347 346 345 345 344 344 343 343 343 343 343 344 343 343 342 341 340 339 340 340 340 339 336 334 331 329 327 325 322 319 317 315 314
222 220 212 206 203 205 210 211 211 215 214 212 213 222 233 247 279 296 302 309 315 320 322 327 331 330 332 336 335 331 331 331 331 333 335 335 337 340 341 343 344 343 341 341 340 340 341 340 340 341 341 341 341 341 340 338 337 336 336 337 338 338 336 334 332 330 329 327 326 323 320 317 314 311
229 230 226 222 218 216 221 227 230 232 234 237 238 243 250 260 275 284 288 294 300 304 309 315 319 320 322 323 321 319 320 323 326 330 333 333 334 337 338 341 341 338 336 337 339 340 342 343 344 344 343 340 338 337 335 335 336 336 337 338 339 337 335 332 330 328 327 325 323 321 319 317 314 310
238 238 237 236 232 228 229 235 239 241 242 245 249 253 257 262 269 276 282 290 295 298 302 308 311 313 314 315 315 317 320 325 328 332 333 332 332 334 335 336 337 337 338 340 342 344 346 348 349 348 346 341 338 335 335 338 339 339 340 340 339 336 333 330 328 325 324 322 320 318 316 314 312 309
245 244 244 245 244 242 240 242 247 249 250 252 255 258 261 265 270 278 286 292 295 298 303 307 309 310 311 313 317 320 322 324 326 328 328 326 326 328 329 331 333 336 338 340 342 345 347 350 352 351 349 346 342 340 340 342 342 342 342 339 336 334 331 329 326 323 321 319 317 315 313 312 310 308
250 249 247 248 250 250 248 247 251 254 256 258 260 263 267 271 275 281 288 293 296 299 303 307 309 310 311 313 316 316 315 317 320 322 321 322 323 325 324 326 329 332 335 339 343 347 349 353 354 354 352 348 345 343 344 344 344 343 341 337 335 334 333 331 328 325 321 317 315 314 312 311 309 307
251 251 250 250 251 253 252 252 253 256 258 262 265 268 270 273 277 282 286 290 293 297 303 308 313 312 310 312 315 316 316 321 326 325 323 325 328 327 325 325 327 332 336 342 348 351 351 352 354 355 354 350 345 344 343 343 343 341 339 337 337 336 335 335 333 330 325 321 318 315 312 310 309 307
252 251 250 250 251 253 253 253 254 256 259 261 264 267 271 274 277 281 284 286 289 294 300 306 308 305 305 314 321 323 324 328 331 328 325 329 332 329 327 330 334 339 343 347 352 353 351 349 351 354 354 351 347 345 342 339 338 338 339 340 340 339 337 336 335 334 331 328 325 321 317 313 309 306
255 254 251 250 250 252 253 253 253 255 257 259 262 265 269 272 275 279 282 284 287 292 296 297 297 300 312 323 324 325 326 328 331 331 329 332 336 334 336 340 342 344 346 348 350 351 348 347 350 352 351 349 345 341 338 336 336 339 341 342 343 342 340 338 336 335 333 332 331 328 323 317 312 307
257 257 254 251 250 250 252 252 252 254 256 257 260 263 266 269 272 276 279 281 285 290 292 295 297 301 315 322 320 322 328 330 333 335 335 337 339 338 338 341 342 342 342 343 345 346 345 344 347 349 348 346 341 336 335 334 336 339 342 343 343 343 343 341 337 334 333 333 332 331 327 321 315 310
258 260 259 254 250 249 250 252 251 252 255 256 258 260 263 267 269 272 273 275 281 287 290 294 297 300 310 316 317 324 331 332 334 336 337 338 339 338 337 338 340 340 338 337 339 343 343 342 343 345 345 343 338 334 332 333 336 339 340 341 342 343 344 343 339 336 334 333 332 330 327 323 319 313
257 261 261 257 252 249 250 252 250 249 250 254 256 258 260 263 264 264 267 271 277 284 289 294 299 303 308 313 318 323 327 328 331 334 334 334 335 336 334 334 338 339 336 334 335 338 340 339 340 342 342 339 336 332 330 332 334 337 338 339 341 342 343 343 341 339 336 334 332 330 326 324 320 316
256 259 260 258 253 249 250 252 252 249 247 249 253 255 255 257 257 258 261 266 273 285 293 298 304 308 308 310 316 320 321 323 326 328 328 328 330 332 331 331 334 336 335 333 332 334 336 336 336 339 339 337 334 331 330 332 335 337 337 337 338 340 342 343 343 341 338 335 334 331 328 324 322 318
254 256 258 258 255 252 250 251 252 250 246 245 247 248 249 250 253 257 261 266 276 289 296 298 304 308 306 306 312 315 315 317 319 320 322 323 324 326 326 327 331 333 333 331 329 330 332 332 333 335 336 335 334 332 332 334 335 336 336 336 337 339 340 341 342 341 338 336 334 333 331 327 324 320
252 253 255 255 255 254 253 251 251 249 244 240 240 243 246 247 250 255 261 270 281 290 295 297 301 304 303 303 308 310 310 311 313 314 316 319 321 321 322 324 328 329 330 328 326 326 330 330 330 331 333 334 335 334 333 333 333 333 334 335 336 336 337 339 340 339 337 336 335 334 333 331 327 322
251 251 252 253 253 254 253 252 251 248 242 238 237 241 244 246 249 253 259 270 281 289 294 296 298 299 300 300 302 303 304 306 308 310 312 316 319 318 320 323 325 326 326 325 323 325 327 327 327 329 331 332 333 333 331 331 330 330 332 333 333 334 336 337 337 336 335 335 335 334 334 333 331 325
252 251 250 250 251 252 251 250 249 247 242 238 238 241 243 246 249 254 259 267 274 281 286 287 290 292 294 296 296 298 301 303 306 307 310 313 315 315 317 320 321 323 324 323 322 323 325 324 325 327 329 329 330 330 329 328 328 328 329 330 331 332 333 334 335 335 334 334 334 334 335 334 333 329
253 252 249 247 248 249 249 247 245 244 242 242 242 243 244 246 249 253 258 263 267 270 273 275 279 283 287 290 292 294 298 301 302 303 305 308 310 311 313 317 319 321 322 321 320 321 322 323 324 325 326 327 327 327 327 326 325 326 327 329 330 330 331 333 335 335 335 334 334 335 335 334 333 331
254 253 250 247 246 246 245 244 243 242 242 244 245 246 248 249 250 253 258 263 267 270 271 274 277 280 283 285 286 289 293 296 296 297 300 304 306 308 312 314 316 319 320 319 318 319 321 323 323 321 321 322 323 323 323 323 324 325 327 328 329 330 332 333 335 335 335 336 336 336 336 335 334 333
254 253 250 247 246 245 244 243 242 241 242 245 247 250 252 252 253 256 261 265 268 272 275 277 279 280 282 283 285 288 290 292 294 296 299 302 305 308 311 312 314 317 318 317 316 319 321 322 321 319 318 319 319 319 320 322 324 324 325 327 329 330 331 333 334 335 335 337 338 339 339 338 337 336
253 253 250 247 245 245 245 244 244 243 244 246 249 252 254 256 258 261 263 266 269 272 275 278 280 282 284 285 287 290 291 292 294 296 299 303 306 308 309 310 312 316 317 316 317 320 321 320 319 318 317 317 317 318 320 322 323 323 325 327 329 331 331 332 334 334 336 338 340 341 341 341 341 339
253 251 249 247 245 244 244 246 246 246 247 248 250 252 255 259 262 263 265 267 269 272 275 277 280 283 284 285 288 291 293 293 295 298 302 306 306 306 307 309 311 314 314 314 316 318 319 317 316 316 315 314 315 318 321 322 322 323 326 328 330 330 331 332 333 334 336 339 341 343 343 341 341 341
254 253 250 247 245 243 243 244 246 248 249 250 251 253 256 259 262 264 266 268 270 273 276 279 281 283 283 285 288 291 291 292 296 301 303 304 303 304 306 308 310 310 310 311 314 317 318 316 315 314 313 312 314 318 320 322 323 324 327 329 330 331 331 332 333 334 336 338 341 342 342 341 340 341
254 255 254 250 245 242 240 242 245 248 250 252 253 255 256 258 260 261 263 266 270 273 276 278 280 281 283 286 287 287 288 292 297 299 300 300 302 303 305 306 307 308 309 312 316 318 317 315 313 311 310 312 315 318 320 322 324 326 327 329 331 331 331 331 332 333 335 338 340 341 341 340 339 339
253 254 255 255 252 247 243 243 245 248 251 254 255 257 257 258 260 261 263 265 268 271 273 276 277 280 283 284 284 285 288 292 294 295 297 299 300 301 302 304 306 307 309 313 315 315 314 312 310 309 310 313 316 319 321 323 326 327 327 328 329 329 330 330 330 332 335 337 340 340 340 339 338 337
254 255 256 258 259 258 255 251 250 251 253 256 257 259 260 260 262 263 264 265 267 269 271 273 275 278 280 280 281 284 288 290 290 293 296 297 296 297 299 303 305 307 309 310 311 311 311 310 309 309 311 313 316 319 322 324 325 326 325 326 327 328 328 328 329 332 334 336 338 339 339 339 337 335
255 258 260 261 263 264 264 262 259 257 257 258 258 259 260 261 261 262 264 265 267 268 270 272 275 276 277 278 281 284 285 286 288 292 294 293 292 294 298 302 304 306 307 307 307 309 308 308 308 309 310 312 316 319 321 322 323 323 323 324 326 326 327 328 330 331 333 334 337 339 339 339 337 335
256 260 263 265 266 267 267 267 265 262 260 259 259 260 261 262 262 264 265 267 268 270 272 273 274 274 274 277 280 281 282 285 289 291 289 287 288 292 296 301 303 304 304 304 305 306 305 305 306 306 308 312 316 318 319 320 320 321 323 324 326 327 328 329 331 332 332 333 335 338 339 339 338 335
259 261 262 264 265 266 267 267 266 265 263 261 261 262 263 265 267 268 269 270 271 272 273 273 273 274 276 277 279 282 287 289 289 286 283 283 287 292 296 300 301 302 303 303 303 303 302 302 303 305 309 313 315 316 317 318 319 322 324 325 327 328 329 329 330 331 332 332 334 337 339 340 340 338
259 259 259 261 263 265 266 267 267 267 267 266 265 265 267 269 269 269 269 272 274 275 276 276 275 275 276 279 282 288 294 295 292 287 284 286 290 294 297 299 300 300 299 299 299 299 299 300 303 307 310 313 314 315 317 319 321 324 325 326 327 328 329 330 330 331 332 331 333 337 340 341 340 340
257 259 260 261 263 264 265 266 267 267 268 267 267 267 267 268 268 269 271 273 274 275 276 277 277 279 286 291 291 290 290 290 289 287 287 289 292 295 296 296 296 296 296 295 296 296 297 299 304 308 310 312 313 315 318 320 323 324 325 326 327 328 329 330 331 332 333 333 333 336 339 340 340 340
255 257 259 260 260 260 260 261 262 263 263 264 266 267 266 267 269 271 272 272 273 275 278 281 285 293 302 302 293 284 282 284 285 286 288 290 292 293 292 291 292 294 294 294 294 295 296 299 304 307 308 310 312 315 318 320 321 322 324 326 327 328 328 329 330 332 333 333 332 333 335 337 338 338
252 254 256 257 256 255 256 256 257 259 260 262 266 269 270 271 272 271 272 276 281 284 286 288 293 298 298 293 285 280 282 283 283 283 284 285 287 288 287 288 291 293 293 293 294 295 297 300 304 305 307 309 312 316 318 319 319 321 325 327 326 326 327 328 330 332 332 332 331 332 333 334 336 338
249 250 252 254 254 254 255 255 257 260 262 264 267 271 274 276 275 276 279 283 285 286 288 290 291 289 285 279 275 275 276 278 279 279 280 281 282 283 285 288 290 291 292 293 295 296 298 300 303 307 310 313 315 317 319 318 319 323 327 326 325 326 326 327 329 330 330 331 331 331 332 332 335 339
249 250 251 253 255 257 259 260 261 263 264 265 267 271 273 275 276 280 283 284 283 284 285 285 283 280 276 271 268 268 270 273 277 280 281 280 281 283 285 287 289 290 292 293 295 297 298 301 305 310 313 314 315 317 318 318 320 324 325 324 326 326 325 324 325 326 328 330 332 333 334 334 336 339
251 254 255 257 260 263 264 265 267 268 268 268 270 271 272 274 277 280 282 284 286 286 281 277 277 276 273 269 266 265 266 271 275 277 277 279 281 284 286 286 287 289 291 293 294 296 298 302 308 312 313 314 315 316 318 319 322 324 325 325 327 326 322 322 324 325 327 329 332 336 337 337 336 337
251 255 258 260 263 265 267 268 269 270 271 272 273 275 277 278 279 280 282 284 286 286 282 281 280 277 271 268 267 268 272 275 276 275 276 278 281 283 284 285 286 287 289 291 293 296 300 305 309 311 312 312 314 315 318 320 324 325 324 324 324 324 323 324 326 327 328 330 334 337 339 337 336 336
253 255 259 262 264 265 267 268 269 270 270 271 273 275 277 279 279 280 279 280 281 281 283 284 283 277 271 269 271 275 278 278 276 275 276 278 279 281 283 284 285 286 288 290 293 298 302 305 308 309 310 312 313 316 319 322 325 326 323 320 320 322 322 323 325 327 328 330 333 337 338 336 336 336
256 258 259 262 263 265 266 267 267 268 269 271 272 271 271 274 277 276 275 275 276 277 278 281 280 278 275 275 276 277 276 275 275 276 276 278 280 283 284 283 284 287 291 294 298 301 303 306 308 310 312 314 316 318 321 323 324 325 322 318 319 321 321 322 325 327 327 330 334 336 336 336 336 336
257 258 258 258 259 261 263 265 266 267 267 268 268 268 267 269 272 273 273 275 276 276 275 274 273 272 272 274 275 274 274 275 277 277 278 280 282 283 283 285 288 292 295 299 302 304 306 308 311 312 313 315 317 318 319 321 323 325 324 321 321 322 323 324 326 329 332 337 339 338 337 337 337 337
257 258 259 260 261 262 263 263 264 264 263 262 264 266 266 266 267 270 271 272 273 273 270 267 265 265 267 269 272 274 275 277 278 279 281 283 283 284 287 290 294 297 299 302 304 306 307 309 311 311 312 315 315 316 317 321 325 328 327 325 323 323 324 327 328 331 338 344 342 339 339 340 339 338
260 263 266 269 269 267 265 262 260 259 258 258 260 262 263 264 266 267 267 267 269 270 268 266 267 270 272 274 276 277 278 278 279 281 283 284 285 288 292 295 297 300 302 304 305 306 307 308 309 309 310 311 313 314 317 322 327 328 326 324 323 322 323 327 329 330 335 340 340 339 341 343 341 339
Height
3250 3250 3251 3251 3252 3252 3253 3253 3254 3255 3255 3256 3256 3257 3257 3258 3258 3259 3259 3259 3259 3259 3259 3259 3260 3260 3260 3260 3260 3260 3259 3259 3258 3258 3257 3257 3256 3255 3254 3253 3252 3250 3249 3247 3246 3245 3243 3242 3240 3239 3238 3236 3235 3234 3232 3230 3229 3227 3225 3224 3222 3221 3219 3218 3216 3215 3214 3212 3211 3210 3209 3208 3207 3206
3250 3250 3251 3252 3252 3253 3253 3254 3255 3255 3256 3256 3257 3257 3258 3258 3258 3259 3259 3259 3259 3259 3259 3259 3259 3260 3260 3260 3259 3259 3259 3258 3258 3257 3257 3256 3255 3253 3252 3251 3250 3249 3248 3246 3245 3243 3242 3240 3239 3238 3236 3235 3234 3232 3231 3229 3227 3225 3224 3222 3220 3219 3217 3215 3214 3213 3212 3210 3209 3208 3207 3206 3205 3204
3250 3250 3251 3252 3253 3253 3254 3254 3255 3255 3256 3256 3257 3257 3258 3258 3258 3259 3259 3259 3259 3259 3259 3259 3259 3259 3259 3259 3258 3258 3258 3257 3257 3256 3255 3254 3252 3251 3249 3248 3247 3247 3246 3244 3243 3242 3240 3239 3237 3236 3234 3233 3232 3230 3229 3227 3225 3223 3222 3220 3218 3217 3215 3213 3212 3210 3209 3208 3207 3206 3205 3204 3203 3202
3250 3250 3251 3252 3252 3253 3254 3254 3255 3255 3256 3256 3257 3257 3257 3258 3258 3258 3258 3258 3259 3259 3259 3258 3258 3258 3258 3257 3257 3256 3256 3255 3255 3254 3253 3251 3250 3249 3248 3247 3246 3245 3245 3243 3242 3241 3240 3238 3236 3235 3233 3231 3230 3228 3227 3225 3223 3222 3220 3218 3217 3215 3213 3211 3209 3208 3206 3205 3204 3203 3202 3201 3200 3199
3249 3250 3250 3251 3252 3253 3253 3254 3254 3255 3255 3256 3256 3257 3257 3257 3257 3258 3258 3258 3258 3258 3258 3258 3258 3257 3257 3257 3256 3255 3254 3254 3253 3252 3252 3251 3250 3249 3248 3247 3246 3245 3244 3243 3242 3241 3240 3238 3236 3234 3232 3230 3229 3227 3225 3223 3222 3220 3218 3217 3215 3213 3211 3209 3207 3205 3204 3203 3201 3200 3199 3198 3197 3197
3248 3249 3250 3250 3251 3252 3253 3253 3254 3254 3255 3255 3255 3256 3256 3257 3257 3257 3257 3257 3258 3258 3257 3257 3257 3257 3256 3256 3256 3255 3254 3254 3253 3252 3251 3250 3249 3248 3247 3246 3245 3244 3243 3242 3242 3240 3239 3237 3235 3233 3231 3229 3227 3225 3224 3222 3220 3219 3217 3215 3214 3212 3210 3208 3205 3203 3201 3200 3198 3197 3195 3195 3194 3193
3246 3247 3248 3249 3250 3251 3252 3252 3252 3253 3254 3254 3254 3255 3255 3256 3256 3256 3256 3256 3257 3257 3257 3257 3256 3256 3256 3255 3255 3254 3253 3252 3252 3251 3250 3248 3247 3246 3245 3244 3243 3242 3241 3240 3239 3238 3237 3236 3234 3232 3230 3228 3226 3224 3222 3220 3219 3217 3215 3214 3212 3210 3208 3206 3203 3201 3198 3196 3195 3193 3192 3191 3190 3189
3244 3245 3246 3247 3248 3249 3250 3251 3251 3252 3252 3253 3253 3254 3254 3254 3254 3255 3255 3255 3255 3255 3256 3256 3255 3255 3255 3254 3253 3252 3252 3251 3250 3249 3249 3248 3247 3246 3245 3243 3242 3241 3240 3239 3238 3237 3235 3234 3232 3230 3228 3225 3224 3222 3220 3219 3217 3215 3214 3212 3211 3209 3207 3204 3201 3199 3196 3193 3191 3190 3188 3187 3186 3185
3242 3243 3244 3245 3246 3247 3248 3249 3250 3250 3251 3251 3252 3252 3252 3252 3253 3253 3253 3253 3253 3253 3254 3254 3254 3253 3253 3253 3252 3252 3251 3250 3249 3249 3248 3247 3246 3245 3244 3243 3242 3241 3239 3238 3237 3236 3234 3232 3231 3229 3226 3224 3222 3220 3219 3217 3215 3214 3212 3210 3208 3207 3204 3202 3199 3196 3193 3191 3188 3186 3184 3183 3182 3181
3240 3241 3242 3243 3244 3245 3246 3247 3248 3248 3249 3249 3250 3250 3251 3251 3251 3252 3252 3252 3252 3252 3252 3252 3252 3252 3251 3251 3251 3250 3249 3248 3247 3246 3246 3245 3245 3244 3243 3242 3241 3239 3238 3237 3236 3234 3232 3231 3229 3227 3225 3223 3221 3219 3218 3216 3214 3212 3210 3208 3206 3203 3201 3199 3196 3194 3191 3188 3185 3183 3181 3180 3178 3177
3238 3239 3240 3241 3241 3242 3244 3245 3246 3246 3247 3247 3248 3248 3249 3249 3249 3250 3250 3250 3250 3250 3250 3250 3250 3250 3250 3250 3249 3248 3247 3246 3245 3244 3243 3243 3242 3241 3240 3239 3238 3237 3235 3234 3233 3232 3230 3228 3227 3225 3224 3222 3220 3219 3217 3215 3213 3211 3209 3207 3204 3201 3198 3195 3193 3191 3188 3186 3183 3180 3178 3176 3175 3173
3235 3236 3237 3238 3239 3240 3241 3242 3243 3244 3245 3245 3246 3246 3247 3247 3247 3248 3248 3248 3248 3249 3249 3249 3249 3249 3249 3248 3247 3246 3245 3244 3243 3241 3240 3239 3238 3237 3236 3235 3234 3232 3231 3230 3230 3229 3227 3226 3225 3224 3222 3220 3219 3218 3216 3214 3212 3210 3208 3205 3202 3199 3195 3192 3189 3187 3185 3183 3180 3178 3175 3173 3171 3170
3233 3234 3235 3236 3237 3237 3238 3239 3241 3242 3242 3243 3244 3244 3245 3245 3245 3246 3246 3246 3246 3247 3247 3247 3247 3247 3247 3247 3246 3245 3243 3242 3240 3239 3237 3236 3235 3234 3233 3232 3231 3229 3228 3227 3227 3227 3225 3224 3223 3222 3220 3219 3217 3216 3214 3212 3210 3208 3206 3203 3200 3197 3194 3190 3187 3184 3181 3179 3177 3175 3173 3170 3168 3166
3231 3232 3232 3233 3234 3235 3236 3236 3238 3239 3240 3241 3242 3242 3243 3243 3243 3244 3244 3244 3245 3245 3245 3246 3245 3245 3245 3245 3244 3242 3241 3240 3238 3237 3236 3235 3234 3232 3231 3230 3230 3228 3226 3224 3224 3224 3223 3221 3220 3219 3218 3217 3216 3214 3212 3210 3208 3205 3203 3201 3198 3195 3192 3189 3185 3181 3178 3176 3174 3172 3170 3167 3165 3163
3229 3230 3230 3231 3232 3232 3233 3234 3235 3237 3238 3238 3239 3240 3240 3240 3241 3242 3242 3242 3243 3243 3243 3243 3243 3243 3243 3242 3241 3240 3239 3238 3237 3236 3235 3233 3232 3231 3229 3228 3228 3227 3225 3222 3221 3221 3220 3218 3217 3217 3215 3214 3213 3211 3209 3207 3205 3203 3200 3198 3196 3193 3190 3186 3183 3179 3176 3173 3170 3168 3166 3164 3162 3160
3227 3227 3228 3229 3229 3230 3231 3231 3232 3234 3235 3236 3237 3237 3238 3238 3239 3240 3240 3240 3241 3241 3240 3241 3241 3241 3240 3240 3240 3239 3237 3236 3236 3235 3234 3232 3231 3229 3228 3226 3225 3225 3224 3221 3219 3218 3217 3216 3214 3214 3213 3211 3209 3208 3206 3204 3201 3199 3196 3194 3192 3189 3187 3184 3180 3177 3173 3170 3167 3165 3162 3160 3158 3157
3224 3225 3226 3226 3227 3228 3229 3229 3230 3231 3233 3234 3234 3235 3235 3236 3237 3238 3238 3238 3238 3238 3238 3238 3239 3239 3238 3237 3238 3237 3236 3234 3234 3233 3232 3231 3229 3228 3226 3225 3223 3222 3221 3219 3217 3216 3215 3213 3211 3211 3210 3208 3206 3204 3202 3199 3197 3195 3193 3190 3187 3184 3182 3180 3177 3174 3171 3168 3165 3162 3159 3156 3154 3153
3222 3223 3224 3225 3225 3226 3227 3227 3228 3229 3230 3231 3232 3233 3233 3234 3235 3235 3236 3236 3236 3236 3236 3236 3236 3237 3236 3235 3235 3235 3234 3233 3232 3230 3229 3228 3227 3226 3225 3223 3222 3220 3218 3216 3214 3214 3213 3210 3208 3207 3206 3204 3203 3201 3199 3197 3195 3193 3191 3188 3184 3182 3179 3176 3173 3170 3167 3164 3161 3158 3155 3153 3150 3148
3220 3221 3222 3222 3223 3224 3224 3225 3225 3226 3228 3229 3230 3230 3231 3232 3233 3233 3234 3234 3234 3234 3234 3234 3234 3234 3234 3233 3232 3232 3231 3230 3229 3228 3227 3226 3224 3223 3222 3221 3220 3218 3216 3213 3211 3210 3209 3208 3205 3203 3202 3201 3200 3198 3196 3194 3192 3190 3188 3186 3183 3180 3177 3174 3171 3168 3164 3161 3158 3154 3151 3149 3146 3145
3217 3218 3219 3220 3221 3221 3222 3223 3223 3224 3225 3226 3227 3228 3229 3229 3230 3231 3232 3232 3232 3233 3233 3232 3232 3232 3232 3231 3230 3229 3228 3227 3226 3225 3224 3223 3221 3219 3218 3218 3217 3216 3213 3210 3208 3206 3206 3205 3203 3201 3199 3197 3197 3196 3194 3192 3190 3187 3185 3183 3181 3178 3176 3174 3171 3167 3162 3158 3154 3151 3148 3145 3142 3140
3213 3215 3217 3218 3218 3219 3220 3221 3221 3222 3223 3223 3224 3225 3226 3227 3227 3228 3229 3230 3230 3231 3230 3230 3230 3230 3229 3229 3228 3227 3226 3225 3223 3222 3221 3220 3219 3217 3216 3215 3214 3212 3210 3208 3205 3204 3202 3201 3200 3199 3198 3195 3193 3192 3192 3190 3187 3185 3183 3180 3178 3175 3173 3171 3168 3164 3160 3156 3152 3148 3145 3141 3139 3136
3210 3212 3214 3215 3215 3216 3218 3218 3219 3219 3220 3221 3222 3223 3223 3224 3225 3226 3227 3227 3227 3227 3227 3227 3228 3227 3227 3226 3226 3225 3224 3222 3221 3219 3218 3218 3216 3214 3213 3212 3210 3209 3207 3205 3203 3201 3199 3198 3196 3195 3196 3196 3192 3189 3188 3188 3185 3183 3180 3178 3175 3171 3168 3166 3163 3160 3157 3154 3150 3146 3143 3139 3136 3133
3208 3209 3210 3212 3213 3214 3215 3216 3216 3217 3218 3218 3219 3220 3220 3221 3222 3223 3224 3224 3224 3224 3224 3224 3224 3224 3224 3224 3223 3223 3221 3220 3218 3216 3215 3214 3213 3212 3211 3208 3206 3205 3204 3202 3200 3198 3196 3195 3193 3191 3190 3192 3192 3189 3186 3184 3182 3180 3178 3175 3172 3168 3165 3162 3159 3156 3153 3151 3147 3143 3140 3137 3134 3131
3205 3206 3207 3209 3210 3212 3213 3213 3214 3214 3215 3216 3217 3217 3217 3217 3219 3220 3220 3220 3220 3220 3221 3221 3221 3221 3221 3220 3220 3219 3218 3217 3215 3213 3212 3212 3211 3209 3207 3205 3203 3202 3200 3198 3197 3195 3194 3192 3191 3189 3186 3185 3186 3187 3185 3182 3179 3177 3175 3172 3169 3165 3161 3158 3155 3152 3149 3146 3143 3140 3136 3133 3131 3128
3202 3203 3204 3206 3207 3209 3210 3211 3211 3212 3212 3213 3214 3214 3214 3215 3215 3215 3216 3216 3216 3216 3217 3217 3217 3217 3217 3216 3216 3216 3214 3213 3211 3210 3210 3209 3208 3205 3203 3201 3200 3199 3197 3196 3194 3193 3192 3190 3188 3186 3185 3182 3181 3181 3181 3180 3177 3174 3171 3168 3165 3161 3157 3153 3151 3148 3144 3142 3139 3136 3133 3130 3127 3125
3198 3200 3201 3203 3205 3206 3207 3208 3208 3209 3209 3210 3210 3211 3212 3212 3212 3212 3212 3212 3212 3212 3212 3213 3213 3213 3213 3213 3213 3212 3210 3209 3208 3207 3206 3205 3203 3202 3200 3198 3197 3196 3195 3193 3191 3190 3189 3187 3185 3182 3181 3180 3179 3176 3175 3175 3173 3170 3167 3164 3160 3156 3152 3149 3146 3143 3141 3138 3136 3133 3130 3127 3124 3122
3196 3197 3198 3199 3201 3203 3204 3205 3205 3205 3206 3206 3207 3208 3209 3209 3208 3208 3208 3208 3208 3208 3208 3209 3208 3208 3209 3209 3209 3208 3206 3206 3206 3204 3203 3201 3200 3199 3197 3196 3194 3193 3192 3190 3188 3187 3186 3185 3183 3180 3178 3176 3175 3173 3171 3169 3167 3165 3162 3160 3157 3152 3148 3145 3142 3139 3137 3135 3132 3130 3127 3124 3121 3119
3193 3193 3194 3196 3197 3199 3201 3202 3202 3202 3202 3203 3203 3204 3205 3205 3205 3205 3205 3205 3205 3205 3205 3204 3204 3204 3205 3204 3203 3202 3202 3202 3202 3201 3200 3199 3197 3196 3195 3193 3192 3190 3189 3187 3186 3184 3183 3182 3181 3179 3176 3173 3171 3169 3167 3164 3162 3159 3157 3155 3153 3149 3145 3142 3139 3137 3134 3132 3129 3126 3123 3121 3118 3115
3189 3190 3192 3193 3194 3196 3198 3199 3200 3200 3200 3200 3200 3200 3200 3201 3201 3201 3201 3201 3201 3201 3201 3200 3200 3200 3200 3198 3198 3198 3199 3198 3197 3197 3196 3195 3193 3192 3191 3191 3189 3187 3186 3185 3184 3182 3181 3179 3178 3176 3173 3171 3168 3165 3162 3160 3158 3156 3153 3151 3149 3146 3143 3139 3136 3133 3131 3129 3127 3124 3120 3117 3113 3110
3186 3187 3189 3190 3191 3192 3193 3195 3196 3197 3197 3197 3196 3196 3196 3197 3197 3197 3197 3196 3196 3196 3196 3196 3195 3194 3194 3194 3194 3195 3194 3193 3193 3192 3192 3190 3189 3188 3188 3187 3186 3184 3183 3182 3181 3180 3178 3176 3175 3173 3170 3168 3166 3162 3159 3157 3155 3153 3151 3147 3145 3142 3139 3136 3133 3130 3128 3126 3125 3122 3119 3115 3111 3106
3183 3185 3186 3187 3188 3189 3189 3191 3192 3192 3193 3193 3192 3192 3192 3192 3192 3193 3193 3192 3192 3192 3192 3191 3190 3189 3189 3190 3191 3190 3190 3189 3189 3188 3186 3185 3185 3184 3183 3183 3182 3181 3180 3179 3177 3176 3176 3174 3172 3170 3167 3165 3163 3160 3158 3156 3153 3150 3147 3144 3141 3137 3134 3131 3129 3126 3124 3122 3121 3120 3118 3114 3110 3105
3181 3182 3183 3183 3184 3185 3186 3186 3187 3188 3188 3189 3189 3189 3189 3188 3189 3188 3188 3187 3187 3187 3187 3186 3186 3185 3185 3186 3186 3186 3186 3186 3185 3184 3182 3181 3181 3180 3180 3179 3179 3178 3177 3175 3174 3173 3172 3171 3169 3167 3164 3162 3160 3158 3156 3153 3150 3147 3143 3140 3137 3134 3131 3127 3125 3123 3120 3118 3117 3117 3115 3112 3108 3104
3177 3178 3179 3180 3181 3181 3182 3182 3183 3183 3184 3184 3184 3185 3185 3185 3184 3183 3182 3182 3182 3182 3182 3182 3181 3181 3182 3182 3182 3182 3183 3183 3182 3182 3180 3179 3178 3177 3176 3175 3175 3174 3174 3172 3171 3170 3168 3167 3166 3164 3162 3159 3157 3155 3152 3148 3145 3142 3139 3136 3134 3131 3128 3124 3121 3119 3116 3113 3112 3112 3111 3108 3105 3102
3173 3174 3175 3176 3177 3178 3178 3178 3178 3179 3179 3179 3179 3181 3181 3180 3179 3178 3178 3177 3177 3178 3178 3177 3177 3178 3181 3182 3181 3179 3179 3179 3179 3179 3178 3177 3175 3173 3172 3172 3171 3171 3170 3169 3168 3166 3165 3164 3164 3162 3159 3156 3153 3151 3148 3144 3141 3138 3136 3133 3130 3127 3124 3121 3118 3115 3112 3108 3106 3105 3105 3104 3101 3099
3170 3170 3171 3172 3173 3174 3174 3174 3174 3175 3175 3174 3174 3176 3177 3176 3175 3174 3173 3171 3173 3177 3177 3176 3177 3180 3182 3182 3180 3177 3175 3174 3174 3174 3174 3173 3172 3170 3169 3169 3168 3167 3166 3165 3164 3163 3162 3161 3161 3160 3158 3155 3151 3148 3145 3142 3139 3137 3134 3131 3128 3124 3121 3118 3116 3113 3110 3106 3102 3100 3099 3099 3098 3096
3166 3166 3167 3168 3169 3169 3169 3170 3170 3171 3171 3170 3171 3171 3172 3172 3170 3168 3167 3169 3173 3176 3176 3175 3176 3178 3178 3177 3176 3174 3173 3171 3170 3170 3170 3169 3169 3168 3167 3166 3165 3164 3163 3161 3160 3159 3158 3157 3157 3156 3153 3151 3148 3145 3142 3139 3137 3135 3132 3128 3125 3122 3119 3117 3114 3111 3108 3104 3100 3096 3094 3092 3092 3091
3162 3162 3163 3164 3164 3164 3165 3166 3166 3167 3167 3167 3167 3167 3168 3168 3166 3164 3165 3167 3170 3171 3172 3171 3171 3171 3172 3173 3171 3170 3169 3168 3167 3167 3166 3166 3166 3165 3164 3163 3161 3160 3159 3158 3156 3154 3153 3153 3153 3151 3147 3144 3142 3141 3138 3135 3133 3132 3130 3126 3122 3120 3117 3115 3112 3110 3107 3104 3100 3096 3091 3088 3086 3085
3157 3158 3159 3159 3159 3160 3161 3162 3163 3163 3163 3163 3164 3163 3163 3163 3163 3162 3162 3163 3164 3167 3168 3167 3166 3166 3167 3168 3167 3166 3165 3164 3163 3162 3161 3160 3161 3161 3160 3159 3158 3157 3156 3154 3153 3150 3148 3147 3147 3146 3143 3140 3137 3136 3134 3131 3128 3127 3125 3122 3120 3117 3114 3112 3109 3107 3105 3104 3100 3096 3091 3086 3082 3079
3153 3154 3155 3156 3156 3157 3158 3159 3159 3159 3158 3159 3159 3159 3159 3160 3160 3159 3159 3158 3159 3162 3164 3162 3161 3162 3162 3162 3163 3163 3162 3161 3160 3158 3157 3156 3156 3156 3156 3155 3154 3153 3153 3152 3150 3147 3144 3142 3142 3141 3138 3136 3133 3131 3129 3126 3123 3121 3118 3117 3116 3113 3110 3108 3106 3104 3101 3100 3098 3096 3092 3088 3084 3080
3150 3151 3152 3153 3153 3154 3154 3155 3155 3154 3154 3154 3155 3155 3156 3156 3156 3156 3155 3154 3154 3156 3157 3157 3157 3157 3156 3156 3157 3158 3158 3157 3156 3155 3153 3153 3152 3152 3152 3152 3151 3150 3150 3149 3147 3144 3141 3138 3137 3137 3134 3132 3129 3128 3126 3124 3121 3117 3114 3112 3111 3110 3107 3105 3103 3100 3097 3095 3092 3091 3089 3086 3083 3080
3147 3148 3148 3149 3150 3150 3151 3151 3151 3150 3150 3149 3150 3152 3153 3153 3152 3152 3152 3150 3150 3151 3152 3152 3151 3151 3151 3152 3152 3153 3152 3152 3151 3151 3150 3149 3149 3148 3149 3149 3147 3146 3146 3145 3143 3141 3138 3135 3133 3132 3130 3128 3126 3124 3122 3121 3119 3116 3112 3109 3108 3107 3105 3103 3101 3098 3095 3092 3089 3087 3085 3082 3079 3077
3143 3144 3144 3145 3146 3146 3147 3147 3146 3146 3146 3146 3147 3150 3151 3150 3148 3148 3148 3147 3148 3148 3148 3147 3147 3147 3147 3147 3148 3148 3148 3147 3147 3147 3146 3145 3145 3145 3145 3145 3144 3142 3141 3140 3138 3137 3135 3132 3129 3126 3124 3122 3121 3119 3117 3117 3116 3114 3110 3106 3105 3104 3103 3101 3100 3098 3095 3091 3087 3084 3082 3079 3076 3074
3140 3140 3140 3141 3142 3142 3143 3143 3143 3143 3143 3143 3144 3147 3148 3147 3145 3144 3144 3144 3144 3144 3144 3144 3144 3144 3144 3144 3144 3145 3144 3143 3143 3143 3142 3142 3142 3141 3140 3139 3139 3138 3136 3135 3133 3131 3130 3128 3126 3122 3119 3117 3116 3115 3114 3114 3113 3112 3108 3103 3102 3102 3100 3098 3096 3095 3094 3091 3088 3084 3081 3077 3074 3071
3136 3136 3137 3138 3139 3139 3139 3139 3140 3140 3140 3140 3140 3141 3142 3143 3142 3142 3141 3140 3140 3140 3140 3140 3139 3140 3141 3141 3141 3140 3140 3140 3139 3138 3138 3137 3137 3136 3135 3134 3133 3132 3131 3130 3129 3127 3125 3123 3122 3119 3117 3114 3112 3111 3111 3111 3110 3108 3105 3101 3099 3098 3098 3095 3092 3090 3090 3089 3087 3085 3082 3078 3075 3072
3132 3133 3134 3135 3136 3135 3135 3135 3136 3136 3136 3136 3136 3137 3137 3137 3138 3137 3137 3136 3136 3136 3136 3135 3134 3135 3136 3137 3136 3135 3135 3135 3135 3135 3134 3133 3132 3131 3131 3130 3128 3127 3126 3125 3124 3123 3121 3119 3118 3116 3115 3113 3110 3108 3107 3107 3106 3105 3103 3100 3097 3095 3095 3094 3091 3088 3086 3086 3085 3083 3081 3079 3076 3074